,,Stat5,,Stat1,,Stat2,,Stat3,,Stat4,,Wind1,,Wind1,
time,status,PA1M_AVG,status,PR1M_SUM,status,RH1M_AVG,status,SR1M_AVG,status,TA1M_AVG,status,W1dAve1m,status,W1sAve1m,
2001-01-25, 00:00:00,VALID,916.59,VALID,0,VALID,98.5672,VALID,0,VALID,19.445,VALID,274,VALID,0.17652,
2001-01-25, 00:01:00,VALID,916.554,VALID,0,VALID,98.5583,VALID,-0.0169808,VALID,19.4358,VALID,247,VALID,0.0435855,
2001-01-25, 00:02:00,VALID,916.527,VALID,0,VALID,98.5608,VALID,-0.0169808,VALID,19.4294,VALID,247,VALID,0,
2001-01-25, 00:03:00,VALID,916.496,VALID,0,VALID,98.5672,VALID,-0.0339617,VALID,19.4192,VALID,238,VALID,0,
2001-01-25, 00:04:00,VALID,916.488,VALID,0,VALID,98.6002,VALID,-0.0509425,VALID,19.4256,VALID,239,VALID,0,
2001-01-25, 00:05:00,VALID,916.476,VALID,0,VALID,98.5951,VALID,0,VALID,19.4294,VALID,239,VALID,0,
2001-01-25, 00:06:00,VALID,916.474,VALID,0,VALID,98.5659,VALID,-0.0169808,VALID,19.4033,VALID,239,VALID,0,
2001-01-25, 00:07:00,VALID,916.459,VALID,0,VALID,98.5494,VALID,-0.0169808,VALID,19.3936,VALID,242,VALID,0,
2001-01-25, 00:08:00,VALID,916.437,VALID,0,VALID,98.5799,VALID,0,VALID,19.3966,VALID,209,VALID,0,
2001-01-25, 00:09:00,VALID,916.407,VALID,0,VALID,98.5837,VALID,-0.0169808,VALID,19.3971,VALID,157,VALID,0,
2001-01-25, 00:10:00,VALID,916.398,VALID,0,VALID,98.5735,VALID,-0.0169808,VALID,19.3812,VALID,147,VALID,0,
2001-01-25, 00:11:00,VALID,916.378,VALID,0,VALID,98.5672,VALID,-0.0169808,VALID,19.3876,VALID,147,VALID,0,
2001-01-25, 00:12:00,VALID,916.366,VALID,0,VALID,98.5443,VALID,0,VALID,19.3551,VALID,149,VALID,0,
2001-01-25, 00:13:00,VALID,916.353,VALID,0,VALID,98.5405,VALID,-0.0509425,VALID,19.3454,VALID,151,VALID,0,
2001-01-25, 00:14:00,VALID,916.329,VALID,0,VALID,98.5506,VALID,-0.0169808,VALID,19.3325,VALID,149,VALID,0.0760691,
2001-01-25, 00:15:00,VALID,916.322,VALID,0,VALID,98.5544,VALID,-0.0339617,VALID,19.3325,VALID,144,VALID,0.162829,
2001-01-25, 00:16:00,VALID,916.327,VALID,0,VALID,98.5672,VALID,-0.0509425,VALID,19.3392,VALID,144,VALID,0,
2001-01-25, 00:17:00,VALID,916.323,VALID,0,VALID,98.5964,VALID,0,VALID,19.3454,VALID,144,VALID,0,
2001-01-25, 00:18:00,VALID,916.326,VALID,0,VALID,98.5964,VALID,-0.0339617,VALID,19.3489,VALID,144,VALID,0,
2001-01-25, 00:19:00,VALID,916.328,VALID,0,VALID,98.5913,VALID,0,VALID,19.3459,VALID,123,VALID,0.126234,
2001-01-25, 00:20:00,VALID,916.318,VALID,0,VALID,98.5888,VALID,-0.0339617,VALID,19.3357,VALID,96,VALID,0.360176,
2001-01-25, 00:21:00,VALID,916.32,VALID,0,VALID,98.5939,VALID,-0.0169808,VALID,19.3228,VALID,96,VALID,0.253005,
2001-01-25, 00:22:00,VALID,916.318,VALID,0,VALID,98.6104,VALID,0.0849042,VALID,19.3285,VALID,96,VALID,0.131968,
2001-01-25, 00:23:00,VALID,916.322,VALID,0,VALID,98.59,VALID,0.0679233,VALID,19.3119,VALID,96,VALID,0,
2001-01-25, 00:24:00,VALID,916.306,VALID,0,VALID,98.6167,VALID,0.118866,VALID,19.3081,VALID,96,VALID,0.000600962,
2001-01-25, 00:25:00,VALID,916.307,VALID,0,VALID,98.6587,VALID,0.101885,VALID,19.3312,VALID,101,VALID,0.466546,
2001-01-25, 00:26:00,VALID,916.308,VALID,0,VALID,98.6689,VALID,0.101885,VALID,19.3439,VALID,104,VALID,0.711857,
2001-01-25, 00:27:00,VALID,916.315,VALID,0,VALID,98.6587,VALID,0.101885,VALID,19.3211,VALID,91,VALID,0.831209,
2001-01-25, 00:28:00,VALID,916.325,VALID,0,VALID,98.6549,VALID,0.101885,VALID,19.3086,VALID,91,VALID,0.885135,
2001-01-25, 00:29:00,VALID,916.338,VALID,0,VALID,98.6803,VALID,0.0679233,VALID,19.3089,VALID,103,VALID,0.991102,
2001-01-25, 00:30:00,VALID,916.355,VALID,0,VALID,98.7197,VALID,0.101885,VALID,19.3151,VALID,95,VALID,1.16102,
2001-01-25, 00:31:00,VALID,916.365,VALID,0,VALID,98.7604,VALID,0.0339617,VALID,19.3379,VALID,100,VALID,1.15872,
2001-01-25, 00:32:00,VALID,916.368,VALID,0,VALID,98.7935,VALID,0.0849042,VALID,19.3608,VALID,100,VALID,0.990287,
2001-01-25, 00:33:00,VALID,916.37,VALID,0,VALID,98.8088,VALID,0.101885,VALID,19.3668,VALID,99,VALID,0.934821,
2001-01-25, 00:34:00,VALID,916.372,VALID,0,VALID,98.8177,VALID,0.0509425,VALID,19.3765,VALID,100,VALID,0.790179,
2001-01-25, 00:35:00,VALID,916.371,VALID,0,VALID,98.8164,VALID,0.0679233,VALID,19.3799,VALID,99,VALID,0.652549,
2001-01-25, 00:36:00,VALID,916.372,VALID,0,VALID,98.7897,VALID,0.0679233,VALID,19.3571,VALID,99,VALID,0.52504,
2001-01-25, 00:37:00,VALID,916.385,VALID,0,VALID,98.7757,VALID,-0.0509425,VALID,19.3466,VALID,98,VALID,0.874414,
2001-01-25, 00:38:00,VALID,916.384,VALID,0,VALID,98.7884,VALID,-0.0169808,VALID,19.3329,VALID,93,VALID,0.964638,
2001-01-25, 00:39:00,VALID,916.381,VALID,0,VALID,98.8088,VALID,-0.0849042,VALID,19.3329,VALID,78,VALID,0.901182,
2001-01-25, 00:40:00,VALID,916.376,VALID,0,VALID,98.8037,VALID,-0.0169808,VALID,19.3267,VALID,92,VALID,0.612179,
2001-01-25, 00:41:00,VALID,916.383,VALID,0,VALID,98.8253,VALID,-0.0509425,VALID,19.3262,VALID,87,VALID,0.58754,
2001-01-25, 00:42:00,VALID,916.385,VALID,0,VALID,98.8049,VALID,-0.0339617,VALID,19.3173,VALID,77,VALID,0.917468,
2001-01-25, 00:43:00,VALID,916.394,VALID,0,VALID,98.8075,VALID,-0.0849042,VALID,19.2977,VALID,84,VALID,0.883929,
2001-01-25, 00:44:00,VALID,916.395,VALID,0,VALID,98.8342,VALID,-0.0169808,VALID,19.2947,VALID,92,VALID,1.15645,
2001-01-25, 00:45:00,VALID,916.381,VALID,0,VALID,98.8482,VALID,-0.0169808,VALID,19.2711,VALID,83,VALID,1.13455,
2001-01-25, 00:46:00,VALID,916.362,VALID,0,VALID,98.8571,VALID,-0.0169808,VALID,19.2681,VALID,87,VALID,0.98329,
2001-01-25, 00:47:00,VALID,916.355,VALID,0,VALID,98.8482,VALID,-0.0509425,VALID,19.249,VALID,91,VALID,0.73353,
2001-01-25, 00:48:00,VALID,916.337,VALID,0,VALID,98.8812,VALID,-0.0169808,VALID,19.2522,VALID,100,VALID,0.660567,
2001-01-25, 00:49:00,VALID,916.31,VALID,0,VALID,98.8812,VALID,-0.0169808,VALID,19.2393,VALID,103,VALID,0.600507,
2001-01-25, 00:50:00,VALID,916.292,VALID,0,VALID,98.8901,VALID,-0.0339617,VALID,19.2291,VALID,110,VALID,0.358742,
2001-01-25, 00:51:00,VALID,916.298,VALID,0,VALID,98.9156,VALID,-0.0169808,VALID,19.2423,VALID,111,VALID,0.009375,
2001-01-25, 00:52:00,VALID,916.291,VALID,0,VALID,98.9385,VALID,0.0679233,VALID,19.2304,VALID,111,VALID,0,
2001-01-25, 00:53:00,VALID,916.271,VALID,0,VALID,98.9245,VALID,0.0849042,VALID,19.2306,VALID,111,VALID,0,
2001-01-25, 00:54:00,VALID,916.255,VALID,0,VALID,98.9219,VALID,0.0849042,VALID,19.2276,VALID,111,VALID,0,
2001-01-25, 00:55:00,VALID,916.244,VALID,0,VALID,98.9321,VALID,0.0849042,VALID,19.2177,VALID,105,VALID,0.101758,
2001-01-25, 00:56:00,VALID,916.229,VALID,0,VALID,98.9741,VALID,0.101885,VALID,19.2239,VALID,85,VALID,0.398232,
2001-01-25, 00:57:00,VALID,916.223,VALID,0,VALID,98.9728,VALID,0.118866,VALID,19.2145,VALID,77,VALID,0.179071,
2001-01-25, 00:58:00,VALID,916.224,VALID,0,VALID,98.9715,VALID,0.101885,VALID,19.1882,VALID,75,VALID,0,
2001-01-25, 00:59:00,VALID,916.223,VALID,0,VALID,98.9614,VALID,0.0849042,VALID,19.1857,VALID,75,VALID,0,
2001-01-25, 01:00:00,VALID,916.225,VALID,0,VALID,98.983,VALID,0.101885,VALID,19.1886,VALID,75,VALID,0,
2001-01-25, 01:01:00,VALID,916.219,VALID,0,VALID,99.0148,VALID,0.0679233,VALID,19.1953,VALID,76,VALID,0,
2001-01-25, 01:02:00,VALID,916.214,VALID,0,VALID,99.0453,VALID,0.101885,VALID,19.2207,VALID,79,VALID,0,
2001-01-25, 01:03:00,VALID,916.192,VALID,0,VALID,99.058,VALID,0.0849042,VALID,19.2438,VALID,87,VALID,0,
2001-01-25, 01:04:00,VALID,916.177,VALID,0,VALID,99.0593,VALID,0.101885,VALID,19.2369,VALID,96,VALID,0,
2001-01-25, 01:05:00,VALID,916.146,VALID,0,VALID,99.0783,VALID,0.101885,VALID,19.2565,VALID,96,VALID,0,
2001-01-25, 01:06:00,VALID,916.133,VALID,0,VALID,99.0809,VALID,0.101885,VALID,19.2503,VALID,95,VALID,0,
2001-01-25, 01:07:00,VALID,916.116,VALID,0,VALID,99.0745,VALID,-0.0339617,VALID,19.2616,VALID,197,VALID,0.133657,
2001-01-25, 01:08:00,VALID,916.112,VALID,0,VALID,99.0847,VALID,0,VALID,19.2783,VALID,269,VALID,0,
2001-01-25, 01:09:00,VALID,916.105,VALID,0,VALID,99.0936,VALID,-0.0169808,VALID,19.2706,VALID,269,VALID,0,
2001-01-25, 01:10:00,VALID,916.107,VALID,0,VALID,99.1012,VALID,0,VALID,19.3039,VALID,269,VALID,0,
2001-01-25, 01:11:00,VALID,916.095,VALID,0,VALID,99.1152,VALID,-0.0339617,VALID,19.3004,VALID,269,VALID,0,
2001-01-25, 01:12:00,VALID,916.115,VALID,0,VALID,99.1152,VALID,0.0339617,VALID,19.2962,VALID,269,VALID,0,
2001-01-25, 01:13:00,VALID,916.125,VALID,0,VALID,99.1228,VALID,-0.0169808,VALID,19.3262,VALID,269,VALID,0.000844595,
2001-01-25, 01:14:00,VALID,916.11,VALID,0,VALID,99.1356,VALID,-0.0169808,VALID,19.3166,VALID,273,VALID,0,
2001-01-25, 01:15:00,VALID,916.123,VALID,0,VALID,99.147,VALID,-0.0169808,VALID,19.3325,VALID,286,VALID,0,
2001-01-25, 01:16:00,VALID,916.113,VALID,0,VALID,99.1419,VALID,0,VALID,19.3357,VALID,286,VALID,0,
2001-01-25, 01:17:00,VALID,916.124,VALID,0,VALID,99.1419,VALID,0,VALID,19.323,VALID,290,VALID,0.169118,
2001-01-25, 01:18:00,VALID,916.115,VALID,0,VALID,99.1559,VALID,0,VALID,19.3387,VALID,293,VALID,0.0217928,
2001-01-25, 01:19:00,VALID,916.115,VALID,0,VALID,99.1635,VALID,0,VALID,19.3583,VALID,293,VALID,0,
2001-01-25, 01:20:00,VALID,916.12,VALID,0,VALID,99.1928,VALID,-0.0169808,VALID,19.377,VALID,293,VALID,0,
2001-01-25, 01:21:00,VALID,916.111,VALID,0,VALID,99.1928,VALID,0,VALID,19.3911,VALID,293,VALID,0,
2001-01-25, 01:22:00,VALID,916.119,VALID,0,VALID,99.1813,VALID,0,VALID,19.3742,VALID,297,VALID,0.123766,
2001-01-25, 01:23:00,VALID,916.109,VALID,0,VALID,99.1699,VALID,0,VALID,19.3484,VALID,305,VALID,0.229519,
2001-01-25, 01:24:00,VALID,916.094,VALID,0,VALID,99.1788,VALID,-0.0169808,VALID,19.3389,VALID,295,VALID,0.127009,
2001-01-25, 01:25:00,VALID,916.048,VALID,0,VALID,99.175,VALID,0,VALID,19.3424,VALID,295,VALID,0,
2001-01-25, 01:26:00,VALID,916.012,VALID,0,VALID,99.1928,VALID,-0.0169808,VALID,19.3451,VALID,299,VALID,0.119655,
2001-01-25, 01:27:00,VALID,916.003,VALID,0,VALID,99.1953,VALID,-0.0339617,VALID,19.3389,VALID,312,VALID,0,
2001-01-25, 01:28:00,VALID,915.99,VALID,0,VALID,99.1864,VALID,-0.0169808,VALID,19.3228,VALID,322,VALID,0,
2001-01-25, 01:29:00,VALID,915.987,VALID,0,VALID,99.2004,VALID,-0.0339617,VALID,19.3325,VALID,323,VALID,0,
2001-01-25, 01:30:00,VALID,915.968,VALID,0,VALID,99.2055,VALID,-0.0169808,VALID,19.3486,VALID,357,VALID,0.0289274,
2001-01-25, 01:31:00,VALID,915.954,VALID,0,VALID,99.208,VALID,-0.0169808,VALID,19.3613,VALID,106,VALID,0,
2001-01-25, 01:32:00,VALID,915.965,VALID,0,VALID,99.2284,VALID,0,VALID,19.3844,VALID,108,VALID,0,
2001-01-25, 01:33:00,VALID,915.972,VALID,0,VALID,99.2144,VALID,-0.0169808,VALID,19.3807,VALID,107,VALID,0,
2001-01-25, 01:34:00,VALID,915.964,VALID,0,VALID,99.1928,VALID,0,VALID,19.3484,VALID,75,VALID,0.16875,
2001-01-25, 01:35:00,VALID,915.972,VALID,0,VALID,99.1852,VALID,0.0169808,VALID,19.3558,VALID,69,VALID,0.0529297,
2001-01-25, 01:36:00,VALID,915.974,VALID,0,VALID,99.1763,VALID,-0.0339617,VALID,19.3292,VALID,68,VALID,0.204427,
2001-01-25, 01:37:00,VALID,915.958,VALID,0,VALID,99.1763,VALID,-0.0339617,VALID,19.29,VALID,75,VALID,0,
2001-01-25, 01:38:00,VALID,915.938,VALID,0,VALID,99.1775,VALID,-0.0169808,VALID,19.3066,VALID,100,VALID,0.5625,
2001-01-25, 01:39:00,VALID,915.922,VALID,0,VALID,99.1813,VALID,-0.0169808,VALID,19.3031,VALID,98,VALID,0.289063,
2001-01-25, 01:40:00,VALID,915.898,VALID,0,VALID,99.1826,VALID,0,VALID,19.3096,VALID,98,VALID,0.139992,
2001-01-25, 01:41:00,VALID,915.872,VALID,0,VALID,99.1737,VALID,-0.0169808,VALID,19.2875,VALID,68,VALID,0.261191,
2001-01-25, 01:42:00,VALID,915.859,VALID,0,VALID,99.1635,VALID,-0.0509425,VALID,19.2482,VALID,36,VALID,0.185268,
2001-01-25, 01:43:00,VALID,915.856,VALID,0,VALID,99.1635,VALID,-0.0339617,VALID,19.2482,VALID,25,VALID,0.0384457,
2001-01-25, 01:44:00,VALID,915.853,VALID,0,VALID,99.1661,VALID,-0.0169808,VALID,19.2487,VALID,25,VALID,0,
2001-01-25, 01:45:00,VALID,915.854,VALID,0,VALID,99.1801,VALID,0,VALID,19.2552,VALID,25,VALID,0,
2001-01-25, 01:46:00,VALID,915.853,VALID,0,VALID,99.1877,VALID,0,VALID,19.2547,VALID,78,VALID,0.25332,
2001-01-25, 01:47:00,VALID,915.856,VALID,0,VALID,99.203,VALID,0,VALID,19.2706,VALID,82,VALID,0.424959,
2001-01-25, 01:48:00,VALID,915.856,VALID,0,VALID,99.189,VALID,-0.0169808,VALID,19.2512,VALID,50,VALID,0.410979,
2001-01-25, 01:49:00,VALID,915.871,VALID,0,VALID,99.1788,VALID,-0.0169808,VALID,19.252,VALID,22,VALID,0.340234,
2001-01-25, 01:50:00,VALID,915.882,VALID,0,VALID,99.1763,VALID,0,VALID,19.2224,VALID,17,VALID,0.0400641,
2001-01-25, 01:51:00,VALID,915.895,VALID,0,VALID,99.175,VALID,-0.0169808,VALID,19.2393,VALID,17,VALID,0,
2001-01-25, 01:52:00,VALID,915.893,VALID,0,VALID,99.1813,VALID,0,VALID,19.2388,VALID,17,VALID,0,
2001-01-25, 01:53:00,VALID,915.897,VALID,0,VALID,99.1864,VALID,-0.0509425,VALID,19.239,VALID,60,VALID,0.323568,
2001-01-25, 01:54:00,VALID,915.908,VALID,0,VALID,99.1877,VALID,-0.0169808,VALID,19.249,VALID,80,VALID,0.758464,
2001-01-25, 01:55:00,VALID,915.883,VALID,0,VALID,99.1597,VALID,-0.0169808,VALID,19.2259,VALID,88,VALID,0.453726,
2001-01-25, 01:56:00,VALID,915.885,VALID,0,VALID,99.1406,VALID,-0.0169808,VALID,19.2035,VALID,76,VALID,0.549753,
2001-01-25, 01:57:00,VALID,915.852,VALID,0,VALID,99.1419,VALID,0,VALID,19.1802,VALID,336,VALID,0.118421,
2001-01-25, 01:58:00,VALID,915.814,VALID,0,VALID,99.1432,VALID,-0.0169808,VALID,19.171,VALID,331,VALID,0.247255,
2001-01-25, 01:59:00,VALID,915.768,VALID,0,VALID,99.1508,VALID,0.0169808,VALID,19.1608,VALID,289,VALID,0.0740017,
2001-01-25, 02:00:00,VALID,915.73,VALID,0,VALID,99.1635,VALID,0,VALID,19.1675,VALID,307,VALID,0.381546,
2001-01-25, 02:01:00,VALID,915.703,VALID,0,VALID,99.1775,VALID,-0.0169808,VALID,19.1841,VALID,313,VALID,0.36986,
2001-01-25, 02:02:00,VALID,915.676,VALID,0,VALID,99.2042,VALID,0,VALID,19.2107,VALID,297,VALID,0.475361,
2001-01-25, 02:03:00,VALID,915.629,VALID,0,VALID,99.2157,VALID,0,VALID,19.2169,VALID,300,VALID,0.374199,
2001-01-25, 02:04:00,VALID,915.603,VALID,0,VALID,99.2297,VALID,0,VALID,19.2194,VALID,301,VALID,0.205659,
2001-01-25, 02:05:00,VALID,915.526,VALID,0,VALID,99.2309,VALID,-0.0339617,VALID,19.239,VALID,301,VALID,0.000600962,
2001-01-25, 02:06:00,VALID,915.526,VALID,0,VALID,99.2233,VALID,-0.0509425,VALID,19.249,VALID,312,VALID,0.0438702,
2001-01-25, 02:07:00,VALID,915.504,VALID,0,VALID,99.2233,VALID,-0.0339617,VALID,19.2524,VALID,101,VALID,0.817508,
2001-01-25, 02:08:00,VALID,915.491,VALID,0,VALID,99.2322,VALID,-0.0339617,VALID,19.2552,VALID,144,VALID,0.40579,
2001-01-25, 02:09:00,VALID,915.492,VALID,0,VALID,99.2309,VALID,0,VALID,19.2482,VALID,171,VALID,0.0143914,
2001-01-25, 02:10:00,VALID,915.512,VALID,0,VALID,99.222,VALID,0,VALID,19.242,VALID,175,VALID,0,
2001-01-25, 02:11:00,VALID,915.509,VALID,0,VALID,99.2233,VALID,-0.0169808,VALID,19.2455,VALID,213,VALID,0,
2001-01-25, 02:12:00,VALID,915.52,VALID,0,VALID,99.2322,VALID,0,VALID,19.2587,VALID,187,VALID,0,
2001-01-25, 02:13:00,VALID,915.525,VALID,0,VALID,99.2297,VALID,0,VALID,19.2482,VALID,160,VALID,0.161801,
2001-01-25, 02:14:00,VALID,915.509,VALID,0,VALID,99.2373,VALID,-0.0169808,VALID,19.2644,VALID,125,VALID,0.410895,
2001-01-25, 02:15:00,VALID,915.497,VALID,0,VALID,99.2309,VALID,-0.0339617,VALID,19.2681,VALID,108,VALID,0.422545,
2001-01-25, 02:16:00,VALID,915.496,VALID,0,VALID,99.2284,VALID,0,VALID,19.278,VALID,104,VALID,0.100223,
2001-01-25, 02:17:00,VALID,915.483,VALID,0,VALID,99.2246,VALID,0,VALID,19.2646,VALID,104,VALID,0.0209704,
2001-01-25, 02:18:00,VALID,915.478,VALID,0,VALID,99.2042,VALID,-0.0169808,VALID,19.239,VALID,104,VALID,0,
2001-01-25, 02:19:00,VALID,915.469,VALID,0,VALID,99.1991,VALID,0.0169808,VALID,19.203,VALID,104,VALID,0,
2001-01-25, 02:20:00,VALID,915.468,VALID,0,VALID,99.208,VALID,-0.0169808,VALID,19.21,VALID,104,VALID,0,
2001-01-25, 02:21:00,VALID,915.481,VALID,0,VALID,99.2055,VALID,0,VALID,19.1908,VALID,104,VALID,0,
2001-01-25, 02:22:00,VALID,915.482,VALID,0,VALID,99.2119,VALID,-0.0169808,VALID,19.1844,VALID,104,VALID,0,
2001-01-25, 02:23:00,VALID,915.487,VALID,0,VALID,99.2119,VALID,-0.0169808,VALID,19.1615,VALID,104,VALID,0,
2001-01-25, 02:24:00,VALID,915.476,VALID,0,VALID,99.2119,VALID,-0.0169808,VALID,19.1615,VALID,104,VALID,0.0999599,
2001-01-25, 02:25:00,VALID,915.455,VALID,0,VALID,99.2233,VALID,0,VALID,19.1682,VALID,102,VALID,0.784598,
2001-01-25, 02:26:00,VALID,915.433,VALID,0,VALID,99.2208,VALID,-0.0169808,VALID,19.1613,VALID,93,VALID,1.03867,
2001-01-25, 02:27:00,VALID,915.424,VALID,0,VALID,99.2208,VALID,0,VALID,19.1685,VALID,85,VALID,0.94553,
2001-01-25, 02:28:00,VALID,915.425,VALID,0,VALID,99.2284,VALID,0,VALID,19.1483,VALID,86,VALID,0.711806,
2001-01-25, 02:29:00,VALID,915.43,VALID,0,VALID,99.2258,VALID,-0.0169808,VALID,19.1362,VALID,84,VALID,0.31799,
2001-01-25, 02:30:00,VALID,915.438,VALID,0,VALID,99.2246,VALID,0,VALID,19.1228,VALID,90,VALID,0,
2001-01-25, 02:31:00,VALID,915.448,VALID,0,VALID,99.2373,VALID,0,VALID,19.1225,VALID,90,VALID,0.0358953,
2001-01-25, 02:32:00,VALID,915.451,VALID,0,VALID,99.25,VALID,0,VALID,19.1292,VALID,92,VALID,0,
2001-01-25, 02:33:00,VALID,915.456,VALID,0,VALID,99.2284,VALID,0.0169808,VALID,19.1091,VALID,93,VALID,0,
2001-01-25, 02:34:00,VALID,915.456,VALID,0,VALID,99.2182,VALID,0,VALID,19.1096,VALID,93,VALID,0,
2001-01-25, 02:35:00,VALID,915.467,VALID,0,VALID,99.2347,VALID,0,VALID,19.1093,VALID,93,VALID,0,
2001-01-25, 02:36:00,VALID,915.446,VALID,0,VALID,99.2398,VALID,0,VALID,19.1098,VALID,93,VALID,0,
2001-01-25, 02:37:00,VALID,915.433,VALID,0,VALID,99.2297,VALID,0,VALID,19.1029,VALID,93,VALID,0,
2001-01-25, 02:38:00,VALID,915.44,VALID,0,VALID,99.2233,VALID,0,VALID,19.1066,VALID,93,VALID,0,
2001-01-25, 02:39:00,VALID,915.443,VALID,0,VALID,99.2347,VALID,0,VALID,19.0867,VALID,93,VALID,0,
2001-01-25, 02:40:00,VALID,915.439,VALID,0,VALID,99.2449,VALID,-0.0169808,VALID,19.1031,VALID,93,VALID,0.0308594,
2001-01-25, 02:41:00,VALID,915.437,VALID,0,VALID,99.2475,VALID,0,VALID,19.1133,VALID,90,VALID,0.00620994,
2001-01-25, 02:42:00,VALID,915.43,VALID,0,VALID,99.2462,VALID,0,VALID,19.0934,VALID,90,VALID,0,
2001-01-25, 02:43:00,VALID,915.434,VALID,0,VALID,99.2462,VALID,0.0509425,VALID,19.08,VALID,90,VALID,0,
2001-01-25, 02:44:00,VALID,915.419,VALID,0,VALID,99.2373,VALID,0.0169808,VALID,19.0803,VALID,90,VALID,0,
2001-01-25, 02:45:00,VALID,915.426,VALID,0,VALID,99.2437,VALID,0.0169808,VALID,19.0773,VALID,91,VALID,0,
2001-01-25, 02:46:00,VALID,915.427,VALID,0.2,VALID,99.2424,VALID,-0.0169808,VALID,19.0706,VALID,95,VALID,0,
2001-01-25, 02:47:00,VALID,915.428,VALID,0,VALID,99.2576,VALID,0.0169808,VALID,19.0738,VALID,108,VALID,0,
2001-01-25, 02:48:00,VALID,915.408,VALID,0,VALID,99.2615,VALID,-0.0169808,VALID,19.0706,VALID,108,VALID,0,
2001-01-25, 02:49:00,VALID,915.403,VALID,0,VALID,99.2322,VALID,0,VALID,19.0482,VALID,108,VALID,0,
2001-01-25, 02:50:00,VALID,915.392,VALID,0,VALID,99.2424,VALID,0,VALID,19.0385,VALID,101,VALID,0,
2001-01-25, 02:51:00,VALID,915.369,VALID,0,VALID,99.2398,VALID,0.0339617,VALID,19.0159,VALID,81,VALID,0.471706,
2001-01-25, 02:52:00,VALID,915.352,VALID,0,VALID,99.2398,VALID,-0.118866,VALID,19.0141,VALID,84,VALID,0.825247,
2001-01-25, 02:53:00,VALID,915.321,VALID,0,VALID,99.2271,VALID,-0.101885,VALID,19.001,VALID,97,VALID,0.785857,
2001-01-25, 02:54:00,VALID,915.3,VALID,0,VALID,99.2169,VALID,-0.101885,VALID,18.992,VALID,90,VALID,0.56851,
2001-01-25, 02:55:00,VALID,915.262,VALID,0,VALID,99.2093,VALID,-0.118866,VALID,18.9595,VALID,86,VALID,0.389147,
2001-01-25, 02:56:00,VALID,915.237,VALID,0,VALID,99.2042,VALID,-0.118866,VALID,18.9403,VALID,86,VALID,0.0497533,
2001-01-25, 02:57:00,VALID,915.214,VALID,0,VALID,99.1979,VALID,-0.118866,VALID,18.9306,VALID,86,VALID,0.00661058,
2001-01-25, 02:58:00,VALID,915.218,VALID,0,VALID,99.1941,VALID,-0.118866,VALID,18.8951,VALID,60,VALID,0.0332532,
2001-01-25, 02:59:00,VALID,915.2,VALID,0,VALID,99.203,VALID,-0.101885,VALID,18.9016,VALID,52,VALID,0,
2001-01-25, 03:00:00,VALID,915.185,VALID,0,VALID,99.208,VALID,-0.0849042,VALID,18.8946,VALID,52,VALID,0,
2001-01-25, 03:01:00,VALID,915.168,VALID,0,VALID,99.2169,VALID,-0.101885,VALID,18.9117,VALID,54,VALID,0,
2001-01-25, 03:02:00,VALID,915.158,VALID,0,VALID,99.2386,VALID,-0.101885,VALID,18.9172,VALID,80,VALID,0,
2001-01-25, 03:03:00,VALID,915.147,VALID,0,VALID,99.2551,VALID,-0.101885,VALID,18.9435,VALID,95,VALID,0,
2001-01-25, 03:04:00,VALID,915.153,VALID,0,VALID,99.2462,VALID,-0.118866,VALID,18.9465,VALID,106,VALID,0,
2001-01-25, 03:05:00,VALID,915.15,VALID,0,VALID,99.222,VALID,-0.101885,VALID,18.9341,VALID,105,VALID,0,
2001-01-25, 03:06:00,VALID,915.145,VALID,0,VALID,99.1928,VALID,-0.0849042,VALID,18.8845,VALID,117,VALID,0,
2001-01-25, 03:07:00,VALID,915.154,VALID,0,VALID,99.1928,VALID,0,VALID,18.8745,VALID,120,VALID,0,
2001-01-25, 03:08:00,VALID,915.156,VALID,0,VALID,99.1928,VALID,0,VALID,18.8614,VALID,120,VALID,0,
2001-01-25, 03:09:00,VALID,915.158,VALID,0,VALID,99.1928,VALID,0,VALID,18.8514,VALID,82,VALID,0,
2001-01-25, 03:10:00,VALID,915.146,VALID,0,VALID,99.2131,VALID,0,VALID,18.8579,VALID,54,VALID,0,
2001-01-25, 03:11:00,VALID,915.139,VALID,0,VALID,99.2157,VALID,-0.0169808,VALID,18.8485,VALID,66,VALID,0,
2001-01-25, 03:12:00,VALID,915.131,VALID,0,VALID,99.222,VALID,0,VALID,18.8517,VALID,76,VALID,0,
2001-01-25, 03:13:00,VALID,915.129,VALID,0,VALID,99.222,VALID,-0.0169808,VALID,18.8549,VALID,108,VALID,0,
2001-01-25, 03:14:00,VALID,915.126,VALID,0,VALID,99.2182,VALID,-0.0169808,VALID,18.8517,VALID,95,VALID,0,
2001-01-25, 03:15:00,VALID,915.121,VALID,0,VALID,99.2157,VALID,0,VALID,18.8524,VALID,96,VALID,0,
2001-01-25, 03:16:00,VALID,915.108,VALID,0,VALID,99.2195,VALID,-0.0169808,VALID,18.8489,VALID,82,VALID,0,
2001-01-25, 03:17:00,VALID,915.102,VALID,0,VALID,99.2195,VALID,0,VALID,18.8425,VALID,75,VALID,0,
2001-01-25, 03:18:00,VALID,915.094,VALID,0,VALID,99.2246,VALID,0,VALID,18.8288,VALID,48,VALID,0,
2001-01-25, 03:19:00,VALID,915.093,VALID,0,VALID,99.2297,VALID,-0.0169808,VALID,18.8325,VALID,49,VALID,0,
2001-01-25, 03:20:00,VALID,915.076,VALID,0,VALID,99.2297,VALID,-0.0339617,VALID,18.8325,VALID,56,VALID,0,
2001-01-25, 03:21:00,VALID,915.06,VALID,0,VALID,99.2271,VALID,-0.0169808,VALID,18.8261,VALID,70,VALID,0,
2001-01-25, 03:22:00,VALID,915.03,VALID,0,VALID,99.2131,VALID,-0.0169808,VALID,18.8201,VALID,70,VALID,0,
2001-01-25, 03:23:00,VALID,915.017,VALID,0,VALID,99.2322,VALID,-0.0339617,VALID,18.8104,VALID,106,VALID,0,
2001-01-25, 03:24:00,VALID,914.976,VALID,0,VALID,99.2233,VALID,0,VALID,18.8132,VALID,132,VALID,0,
2001-01-25, 03:25:00,VALID,914.961,VALID,0,VALID,99.2004,VALID,0,VALID,18.8037,VALID,132,VALID,0,
2001-01-25, 03:26:00,VALID,914.951,VALID,0,VALID,99.1979,VALID,0,VALID,18.7938,VALID,132,VALID,0,
2001-01-25, 03:27:00,VALID,914.94,VALID,0,VALID,99.1852,VALID,-0.0509425,VALID,18.7709,VALID,132,VALID,0,
2001-01-25, 03:28:00,VALID,914.933,VALID,0,VALID,99.1915,VALID,-0.0509425,VALID,18.7716,VALID,145,VALID,0,
2001-01-25, 03:29:00,VALID,914.919,VALID,0,VALID,99.189,VALID,-0.0339617,VALID,18.758,VALID,153,VALID,0,
2001-01-25, 03:30:00,VALID,914.904,VALID,0,VALID,99.2017,VALID,-0.0169808,VALID,18.7488,VALID,188,VALID,0,
2001-01-25, 03:31:00,VALID,914.896,VALID,0,VALID,99.2208,VALID,-0.0169808,VALID,18.765,VALID,191,VALID,0,
2001-01-25, 03:32:00,VALID,914.883,VALID,0,VALID,99.2246,VALID,-0.0169808,VALID,18.7647,VALID,204,VALID,0,
2001-01-25, 03:33:00,VALID,914.872,VALID,0,VALID,99.2093,VALID,-0.0339617,VALID,18.7746,VALID,189,VALID,0,
2001-01-25, 03:34:00,VALID,914.88,VALID,0,VALID,99.1877,VALID,-0.0679233,VALID,18.7456,VALID,183,VALID,0,
2001-01-25, 03:35:00,VALID,914.885,VALID,0,VALID,99.1979,VALID,-0.0339617,VALID,18.7423,VALID,178,VALID,0,
2001-01-25, 03:36:00,VALID,914.891,VALID,0,VALID,99.1915,VALID,0,VALID,18.7257,VALID,170,VALID,0,
2001-01-25, 03:37:00,VALID,914.887,VALID,0,VALID,99.1991,VALID,0,VALID,18.7163,VALID,167,VALID,0,
2001-01-25, 03:38:00,VALID,914.87,VALID,0,VALID,99.2055,VALID,0,VALID,18.7063,VALID,167,VALID,0,
2001-01-25, 03:39:00,VALID,914.844,VALID,0,VALID,99.2157,VALID,-0.0169808,VALID,18.7034,VALID,174,VALID,0,
2001-01-25, 03:40:00,VALID,914.825,VALID,0,VALID,99.2182,VALID,0,VALID,18.7066,VALID,174,VALID,0,